Flag for Switzerland Weather past 2 weeks in Biel, Switzerland

Now
59 °F

Cool.


Feels Like: 59 °F
Forecast: 57 / 68 °F
Wind: 1 mph from Northeast

Location: Grenchen

Current Time: Jul 29, 2014 at 8:27:37 AM

Latest Report: Jul 29, 2014 at 7:00 AM


Visibility: N/A

Pressure: 29.83 "Hg

Humidity: 96%

Dew point: 58 °F

Location of BielLocation

Historic Weather in Biel — Graph

°F

Biel temperature yesterday

Maximum temperature yesterday: 78 °F (at 3:00 PM)
Minimum temperature yesterday: 60 °F (at 5:00 AM)
Average temperature yesterday: 66 °F

Past Weeks' High & Low Weather Summary

 TemperatureHumidityPressure
High89 °F (Jul 18, 5:00 PM)100% (Jul 23, 5:00 AM)30.22 "Hg (Jul 23, 5:00 AM)
Low53 °F (Jul 16, 6:00 AM)18% (Jul 18, 5:00 PM)29.78 "Hg (Jul 28, 3:00 PM)
Average67 °F76%29.98 "Hg
* Reported Jul 14 7:00 AM — Jul 29 7:00 AM, Biel, Weather by CustomWeather, © 2014

Note: Actual official high and low records may vary slightly from our data, if they occured in-between our weather recording intervals... More about our weather records

Advertising

Biel weather history for previous 24 hours

 ConditionsComfort  
Time TempWeatherWind HumidityBarometerVisibility
7:00 AM
Jul 29
59 °FCool.1 mph96%29.83 "HgN/A
6:00 AM59 °FCool.1 mph96%29.83 "HgN/A
5:00 AM59 °FCool.No wind95%29.84 "HgN/A
4:00 AM59 °FCool.1 mph97%29.85 "HgN/A
3:00 AM59 °FCool.1 mph96%29.86 "HgN/A
2:00 AM60 °FCool.No wind95%29.87 "HgN/A
1:00 AM60 °FCool.1 mph97%29.88 "HgN/A
12:00 AM60 °FCool.2 mph95%29.90 "HgN/A
10:00 PM
Jul 28
60 °FCool.5 mph96%29.90 "HgN/A
9:00 PM60 °FCool.8 mph95%29.90 "HgN/A
8:00 PM62 °FCool.8 mph93%29.90 "HgN/A
7:00 PM64 °FMild.9 mph81%29.86 "HgN/A
6:00 PM64 °FMild.9 mph83%29.86 "HgN/A
5:00 PM68 °FMild.22 mph66%29.80 "HgN/A
4:00 PM74 °FMild.17 mph57%29.78 "HgN/A
3:00 PM78 °FWarm.2 mph53%29.78 "HgN/A
2:00 PM76 °FMild.1 mph57%29.80 "HgN/A
1:00 PM75 °FMild.3 mph62%29.83 "HgN/A
12:00 PM73 °FMild.3 mph65%29.85 "HgN/A
11:00 AM71 °FMild.2 mph69%29.88 "HgN/A
10:00 AM68 °FMild.1 mph76%29.90 "HgN/A
9:00 AM65 °FMild.1 mph85%29.92 "HgN/A
8:00 AM64 °FMild.3 mph90%29.93 "HgN/A
Weather by CustomWeather, © 2014

See weather overviewHow to use our weather pages